Location: Dürabuch
(48.2640°N, 11.2185°E)
Time: 19:01:27
(UTC+00:00)

CZ-2D R/B - Pass Details

Date: 21 May 2025
Orbit: 790 x 841 km, 98.8° (Epoch: 16 June)

Event Time Altitude Azimuth Distance (km) Brightness Sun altitude
Rises 01:07:11 0° 20° (NNE) 3,406 7.1 -16.8°
Reaches altitude 10° 01:09:41 10° 27° (NNE) 2,469 6.0 -16.6°
Maximum altitude 01:14:54 44° 98° (E) 1,161 3.1 -16.2°
Enters shadow 01:19:23 14° 167° (SSE) 2,202 4.0 -15.8°
